Regional Weather Roundup
Issued by NWS

Home | Current Version | Previous Version | Graphics & Text | Print | Product List | Glossary On
Versions: 1 2 3 4 5 6 7 8 9 10 11 12 13 14 15 16 17 18 19 20 21 22 23 24 25 26 27 28 29 30 31 32 33 34 35 36 37 38 39 40 41 42 43 44 45 46 47 48 49 50
000
ASUS45 KBOU 010707
RWRCO

WEATHER ROUNDUP FOR COLORADO
NATIONAL WEATHER SERVICE DENVER/BOULDER CO
100 AM MDT SUN MAY 01 2016

NOTE: "FAIR" INDICATES FEW OR NO CLOUDS BELOW 12000 FEET WITH NO
SIGNIFICANT WEATHER AND/OR OBSTRUCTIONS TO VISIBILITY.

COZ001>005-013-030-031-010800-
...NORTHWEST COLORADO...

CITY           SKY/WX    TMP DP  RH WIND       PRES   REMARKS
CRAIG          FAIR      35  23  61 E8        30.11R WCI  29
HAYDEN         FAIR      34  19  55 E10       30.11S WCI  26
MEEKER         FAIR      36  23  59 N16       30.03S
MOUNT WERNER   NOT AVBL
STEAMBOAT SPGS FAIR      34  17  49 E21G32    30.10S WCI  23
WALDEN         MOCLDY    28  18  64 CALM      30.20R
$$

COZ006>008-011-010800-
...WEST CENTRAL VALLEYS...

CITY           SKY/WX    TMP DP  RH WIND       PRES   REMARKS
GRAND JUNCTION FAIR      45  28  51 N6        29.95R
MONTROSE       FAIR      36  29  75 SE3       29.99R
EAGLE          CLOUDY    37  32  81 CALM      30.10S
RIFLE          FAIR      42  28  57 CALM      30.01S
DELTA          NOT AVBL
NUCLA          NOT AVBL
$$

COZ017>023-064>068-010800-
...SOUTHWEST COLORADO...

CITY           SKY/WX    TMP DP  RH WIND       PRES   REMARKS
DURANGO        MOCLDY    35  30  82 CALM      29.93R
CORTEZ         FAIR      34  31  88 E6        29.91S WCI  29
PAGOSA SPRINGS MOCLDY    37  32  84 CALM      29.97S
TELLURIDE      FAIR      32  29  88 CALM      30.00S
WOLF CREEK PAS SNOW      21  21 100 NE12      30.10S VSB 1/4 WCI   9
$$

COZ009-010-012-014-032>034-037-058>063-010800-
...CENTRAL COLORADO...

CITY           SKY/WX    TMP DP  RH WIND       PRES   REMARKS
ASPEN          CLOUDY    34  27  75 N5        30.03R WCI  30
BUENA VISTA    CLOUDY    29  23  77 E3        30.16S
COPPER MTN     NOT AVBL
BERTHOUD PASS  CLOUDY     9   0  66 NW5       30.14R WCI   0
COTTONWOOD PAS FLURRIES  27  21  80 SE8       30.15R WCI  18
GUNNISON       CLOUDY    34  19  55 E21       30.05R WCI  22
KREMMLING      FAIR      32  23  69 E6        30.16S WCI  26
LEADVILLE      CLOUDY    19  18  95 S13       30.10R WCI   6
MONARCH PASS   CLOUDY    16  12  86 MISG      30.18R
SALIDA         CLOUDY    32  26  77 E6        30.24R WCI  26
SUNLIGHT       CLOUDY   N/A N/A N/A NE7       30.09S
WILKERSON PASS CLOUDY   N/A N/A N/A NE15G28   30.14S
$$

COZ069>075-010800-
...SAN LUIS VALLEY/SANGRE DE CRISTO MOUNTAINS...

CITY           SKY/WX    TMP DP  RH WIND       PRES   REMARKS
ALAMOSA        CLOUDY    33  25  72 E12       30.05R WCI  24
LA VETA PASS   LGT SNOW  21  18  86 MISG      30.13R VSB 3/4
SAGUACHE       CLOUDY    36  28  75 S9        30.07R
$$

COZ035-036-038>040-010800-
...NORTHERN COLORADO FRONT RANGE...

CITY           SKY/WX    TMP DP  RH WIND       PRES   REMARKS
DENVER INTL AP LGT SNOW  33  29  85 NW17      30.21S WCI  22
DMNS CITY PARK   N/A     35  31  87 N6G12     30.23S WCI  30
AURORA         CLOUDY    32  32 100 NW15      30.22R WCI  22
FRONT RANGE AP NOT AVBL
ERIE MUNI ARPT CLOUDY    37  32  84 N9        30.23S
BOULDER MUN AP FLURRIES  36  32  87 N3        30.23S
CENTENNIAL     FLURRIES  32  30  92 N15       30.21R WCI  22
BROOMFIELD     FLURRIES  34  32  93 N12G18    30.23R WCI  25
FORT COLLINS   FAIR      36  32  87 N6        30.24S
LONGMONT       CLOUDY    38  33  81 N3        30.26R HAZE
$$

COZ041-046-047-076>085-087-088-010800-
...PIKES PEAK/PALMER DIVIDE AND SOUTHERN FOOTHILLS...

CITY           SKY/WX    TMP DP  RH WIND       PRES   REMARKS
COLO. SPRINGS  FLURRIES  33  27  78 NW14G26   30.17S WCI  23
A. F. ACADEMY  MIX PCPN  32  28  86 N17G30    30.15F WCI  21
SCHRIEVER AFB  NOT AVBL
ELLICOTT       NOT AVBL
FALCON         LGT SNOW  30  28  90 N16G26    30.15F WCI  19
FORT CARSON    MOCLDY    34  27  75 N16G26    30.14S WCI  23
LIMON          CLOUDY    32  30  92 NW30      30.12S WCI  18
MONUMENT HILL  CLOUDY    28  27  93 N20G30    30.18R FOG     WCI  15
TRINIDAD       CLOUDY    34  29  82 NW6       30.17F WCI  29
$$

COZ042>045-048>051-090-091-010800-
...NORTHEAST COLORADO...

CITY           SKY/WX    TMP DP  RH WIND       PRES   REMARKS
GREELEY ARPT   CLOUDY    36  30  80 N14       30.23R
AKRON          LGT SNOW  32  31  96 N22       30.14R FOG     WCI  19
BURLINGTON     CLOUDY    35  31  85 N22G32    30.07R WCI  23
WRAY           NOT AVBL
STERLING       CLOUDY    36  34  93 N18       30.15S
HOLYOKE        NOT AVBL
FORT MORGAN    CLOUDY    35  32  89 N15G21    30.18S WCI  25
$$

COZ086-089-092>099-010800-
...SOUTHEAST COLORADO...

CITY           SKY/WX    TMP DP  RH WIND       PRES   REMARKS
PUEBLO         FAIR      38  29  70 N9        30.17R
LA JUNTA       FAIR      37  31  78 W10       30.17R
LAMAR          CLOUDY    41  33  73 NW14      30.11R
SPRINGFIELD      N/A     34  30  85 NW21G31   30.08F WCI  22
$$



USA.gov is the U.S. government's official web portal to all federal, state and local government web resources and services.